{"data":{"norad_id":61247,"intl_designator":"2024-175E","name":"STARLINK-11305 [DTC]","alt_names":[],"object_type":"PAYLOAD","status":"ACTIVE","operator":null,"country":"US","launch_date":"2024-09-25","launch_site_code":"AFWTR","launch_vehicle":null,"mission":null,"orbit_class":"UNKNOWN","rcs_meters":null,"size_class":null,"mass_kg":null,"dimensions":null,"purposes":["comms"],"wikipedia_slug":null,"has_3d_model":false,"image_url":null,"decayed_at":null,"tle_current":{"epoch":"2026-09-21T21:11:29.779584Z","epoch_age_seconds":72638,"freshness":"FRESH","line1":"1 61247U 24175E   26264.88298356  .00000784  00000+0  11329-4 0  9996","line2":"2 61247  53.1602 168.9008 0000741  81.7367 278.3735 15.69703853114182","mean_motion":15.69703853,"eccentricity":7.41e-5,"inclination_deg":53.1602,"raan_deg":168.9008,"arg_perigee_deg":81.7367,"mean_anomaly_deg":278.3735,"bstar":1.1329e-5,"rev_number":11418,"period_min":91.737049459864,"perigee_km":359.24506383088,"apogee_km":360.24361784559,"semimajor_km":6737.8813408382,"source":"CELESTRAK","updated_at":"2026-09-22T09:00:49.348179Z"}}}